Regional Weather Roundup
Issued by NWS Upton, NY

Current Version | Previous Version | Text Only | Print | Product List | Glossary On
Versions: 1 2 3 4 5 6 7 8 9 10 11 12 13 14 15 16 17 18 19 20 21 22 23 24 25 26 27 28 29 30 31 32 33 34 35 36 37 38 39 40 41 42 43 44 45 46 47 48
000
ASUS41 KOKX 202305
RWROKX
REGIONAL WEATHER ROUNDUP
NATIONAL WEATHER SERVICE NEW YORK NY
700 PM EDT SAT SEP 20 2014

NOTE: "FAIR" INDICATES FEW OR NO CLOUDS BELOW 12,000 FEET WITH NO
SIGNIFICANT WEATHER AND/OR OBSTRUCTIONS TO VISIBILITY.

NYZ071-072-176-178-NJZ106-104-210000-
NEW YORK CITY METRO AREA


CITY           SKY/WX    TMP DP  RH WIND       PRES   REMARKS
CENTRAL PARK   CLEAR     70  58  65 VRB3      30.15F
LAGUARDIA APRT PTCLDY    70  60  70 S16G22    30.12F
KENNEDY INTL   MOCLDY    71  61  70 SE6       30.14F
NEWARK/LIBERTY PTCLDY    72  60  66 SE9       30.11F
BRNX BOT. GARD   N/A     68  59  73 S5        30.13F
TETERBORO      CLEAR     72  55  55 S10       30.10F
$$

NYZ177-179-078>081-210000-
LONG ISLAND NEW YORK

CITY           SKY/WX    TMP DP  RH WIND       PRES   REMARKS
FARMINGDALE    CLOUDY    70  61  73 S6        30.14F
ISLIP          PTCLDY    68  60  75 SE3       30.14F
SHIRLEY        CLEAR     67  59  75 CALM      30.16F
WESTHAMPTON    CLEAR     66  57  72 CALM      30.17F
MONTAUK POINT    N/A     67  60  78 CALM      30.18F
$$

NYZ052-065-067-210000-
HUDSON VALLEY

CITY           SKY/WX    TMP DP  RH WIND       PRES   REMARKS
WHITE PLAINS   CLEAR     67  54  63 SE6       30.12F
NEWBURGH       CLEAR     68  61  77 S12       30.11F
MONTGOMERY     CLEAR     68  59  73 S6        30.09S
POUGHKEEPSIE   CLEAR     69  58  67 SE3       30.08F
ALBANY         MOCLDY    70  56  61 S13G25    30.04F
$$

NJZ001-105-106-008-010-013-015-019>022-104-210000-
NEW JERSEY

CITY           SKY/WX    TMP DP  RH WIND       PRES   REMARKS
NEWARK/LIBERTY PTCLDY    72  60  66 SE9       30.11F
TETERBORO      CLEAR     72  55  55 S10       30.10F
CALDWELL       CLEAR     71  55  56 S12G20    30.11F
MORRISTOWN     CLEAR     72  59  64 S7        30.11F
SOMERVILLE     CLEAR     71  58  63 VRB6      30.09F
LINDEN         FAIR      76  57  51 S9        30.13F
SUSSEX         CLEAR     72  58  61 VRB5      30.09F
ANDOVER          N/A     69  58  67 VRB5      30.10F
TRENTON        CLEAR     70  54  56 S8        30.11F
MILLVILLE      PTCLDY    71  62  73 SE8       30.11F
ATLANTIC CITY  PTCLDY    70  63  78 SE8       30.12F
WRIGHTSTOWN    PTCLDY    70  62  76 SE3       30.10F
TOMS RIVER     PTCLDY    68  63  83 CALM      30.13F
BELMAR         PTCLDY    70  61  73 SE5       30.13F
$$

PAZ047>061-062-071-210000-
EASTERN PENNSYLVANIA

CITY           SKY/WX    TMP DP  RH WIND       PRES   REMARKS
PHILADELPHIA   PTCLDY    73  57  57 SE7       30.10F
ALLENTOWN      CLEAR     73  57  57 S7        30.09S
SCRANTON       PTCLDY    70  56  61 S3        30.06F
$$

CTZ002-004>006-009-010-012-RIZ004-006-007-MAZ004-011-015-210000-
SOUTHERN NEW ENGLAND
 IN CT

CITY           SKY/WX    TMP DP  RH WIND       PRES   REMARKS
BRADLEY INTL   PTCLDY    68  54  60 S9        30.12S
HARTFORD       CLEAR     66  55  67 S9        30.13F
DANBURY        CLEAR     66  56  70 S8G17     30.13F
WTRBRY/OXFORD  PTCLDY    64  55  72 S9G18     30.14F
BRIDGEPORT     CLEAR     70  59  68 S10       30.13F
MERIDEN        CLEAR     67  55  65 S7        30.13F
NEW HAVEN      CLEAR     70  58  65 S12       30.13F
CHESTER        FAIR      66  55  68 S6        30.16F
GROTON         CLEAR     67  59  75 S9        30.15F
WILLIMANTIC    CLEAR     66  54  65 S9        30.15F

 IN RI

CITY           SKY/WX    TMP DP  RH WIND       PRES   REMARKS
PROVIDENCE     PTCLDY    66  54  65 S9        30.16F
BLOCK ISLAND   CLEAR     66  57  72 SW3       30.17F
WESTERLY       CLEAR     68  59  73 S6        30.17F

 IN MA

CITY           SKY/WX    TMP DP  RH WIND       PRES   REMARKS
BOSTON         CLOUDY    67  53  61 S15       30.14F
WORCESTER      CLEAR     62  53  72 S13       30.15F
WESTFIELD      CLEAR     67  55  65 S10       30.12R
PROVINCETOWN   CLEAR     64  55  72 S10       30.18F
NANTUCKET      CLEAR     62  57  83 S6        30.20S
$$

ANZ330-335-338-340-345-350-353-355-210000-
COASTAL MARINE OBSERVATIONS


STATION/POSITION TIME  SKY/WX   TEMP    WIND        PRES    VSBY  WAVE
                                AIR SEA DIR/SP/G                  HT/PER
                 (UTC)          (F)     (DEG/KT/KT) (MB)    (MI)  (FT/S)
NY HARB ENTRANCE 2300            70 71  140/  6/  6 1020.7          4/10
4S FIRE IS       2300               69                N/A           4/ 7
20S FIRE ISLAND  2300            70 69  160/ 10/ 12 1020.8          4/ 9
23SW MTP         2300                                 N/A           3/ 4
HUDSON CANYON    2300            73 72  140/ 14/ 17 1020.3          4/10
EXECUTION ROCKS  2300            71 70  180/ 12/ 16   N/A
WESTERN LI SOUND 2300            71     170/ 10/ 14   N/A           1/ 2
CENTRAL LI SOUND 2200            70 70  200/  8/ 10   N/A           1/ 3
EASTERN LI SOUND 2200            70 68  200/  8/ 12   N/A
ROBBINS REEF     2300            70     150/ 16/ 17 1018.8
$$


>>>>>>>>>>>>>>>>>>>>>>>>>>>> KEY <<<<<<<<<<<<<<<<<<<<<<<<<<<
>                                                          <
>     SKY/WX - SKY CONDITION/PRESENT WEATHER               <
>     TMP    - TEMPERATURE IN FAHRENHEIT                   <
>     DP     - DEWPOINT IN FAHRENHEIT                      <
>     RH     - RELATIVE HUMIDITY IN PERCENT                <
>     WIND   - DIRECTION AND SPEED IN MPH                  <
>     PRES   - MEAN SEA LEVEL PRESSURE IN INCHES OF HG     <
>     WCI    - WIND CHILL INDEX                            <
>     VSB    - VISIBILITY IN MILES                         <
>     HX     - HEAT INDEX                                  <
>     TC     - TEMPERATURE IN CELSIUS                      <
>     VRB    - VARIABLE WIND DIRECTION                     <
>                                                          <
>>>>>>>>>>>>>>>>>>>>>>>>>>>> KEY <<<<<<<<<<<<<<<<<<<<<<<<<<<




USA.gov is the U.S. government's official web portal to all federal, state and local government web resources and services.